Terug naar catalogus

ATLAS 5 CENTAUR DEB

ActiefHEO
NORAD 44644·DEBRIS·🇺🇸 United States

Gelanceerd Oct 17, 2018 vanaf Cape Canaveral Space Force Station

Loading…

Volgende Passages (komende 24 uur)

TLE

VersSource: Space-Track

Epoch: Sep 14, 2026, 11:45 UTC

1 44644U 18079E   26257.48985554 -.00000150  00000-0  00000-0 0  9994
2 44644  13.2239  12.0751 4533605  14.9032 354.8608  1.94048454 52724

Volg ATLAS 5 CENTAUR DEB in realtime met AllMySat

Download on the App Store